| time (UTC) | temp C | wind direction | speed KPH | gust KPH | rain 1hr cm | rain 24hr cm | rain mn cm | humidity % | barometer mb |
| 20260504212204 | 10 | 268 | 12.9 | 22.5 | 0.00 | 0.08 | 0.03 | 69 | 1000.0 |
| 20260504211204 | 10 | 266 | 8.0 | 20.9 | 0.00 | 0.08 | 0.03 | 68 | 999.8 |
| 20260504210204 | 10 | 246 | 9.7 | 24.1 | 0.00 | 0.08 | 0.03 | 68 | 999.8 |
| 20260504205225 | 10 | 251 | 6.4 | 24.1 | 0.00 | 0.10 | 0.03 | 69 | 999.7 |
| 20260504204203 | 10 | 269 | 3.2 | 14.5 | 0.00 | 0.10 | 0.03 | 71 | 999.7 |
| 20260504203204 | 9 | 270 | 4.8 | 12.9 | 0.00 | 0.13 | 0.03 | 74 | 999.8 |
| 20260504202203 | 9 | 260 | 6.4 | 14.5 | 0.00 | 0.13 | 0.03 | 76 | 999.8 |
| 20260504201203 | 8 | 290 | 8.0 | 16.1 | 0.00 | 0.15 | 0.03 | 79 | 999.8 |
| 20260504200204 | 8 | 239 | 0.0 | 9.7 | 0.00 | 0.15 | 0.03 | 79 | 999.8 |
| 20260504195203 | 8 | 256 | 3.2 | 9.7 | 0.03 | 0.18 | 0.03 | 78 | 999.8 |
| 20260504194203 | 8 | 243 | 1.6 | 11.3 | 0.03 | 0.18 | 0.03 | 78 | 999.8 |
| 20260504193203 | 9 | 229 | 0.0 | 16.1 | 0.03 | 0.20 | 0.03 | 79 | 999.8 |
| 20260504192203 | 9 | 270 | 4.8 | 11.3 | 0.03 | 0.23 | 0.03 | 78 | 999.8 |
| 20260504191223 | 9 | 263 | 9.7 | 19.3 | 0.03 | 0.23 | 0.03 | 74 | 999.7 |
| 20260504185203 | 10 | 241 | 1.6 | 16.1 | 0.00 | 0.25 | 0.00 | 70 | 999.7 |
| 20260504184224 | 11 | 255 | 1.6 | 20.9 | 0.00 | 0.25 | 0.00 | 62 | 999.6 |
| 20260504183203 | 11 | 257 | 4.8 | 16.1 | 0.00 | 0.28 | 0.00 | 57 | 999.6 |
| 20260504182203 | 11 | 260 | 3.2 | 25.7 | 0.00 | 0.30 | 0.00 | 57 | 999.6 |
| 20260504181205 | 11 | 250 | 9.7 | 25.7 | 0.00 | 0.30 | 0.00 | 53 | 999.3 |
| 20260504180205 | 12 | 230 | 8.0 | 20.9 | 0.00 | 0.33 | 0.00 | 50 | 999.3 |
| 20260504175205 | 12 | 251 | 8.0 | 22.5 | 0.00 | 0.33 | 0.00 | 45 | 999.1 |
| 20260504174204 | 13 | 244 | 6.4 | 22.5 | 0.00 | 0.36 | 0.00 | 40 | 999.0 |
| 20260504173226 | 13 | 257 | 6.4 | 16.1 | 0.00 | 0.36 | 0.00 | 37 | 998.9 |
| 20260504172205 | 13 | 275 | 11.3 | 25.7 | 0.00 | 0.36 | 0.00 | 36 | 998.9 |
| 20260504171204 | 13 | 268 | 17.7 | 30.6 | 0.00 | 0.36 | 0.00 | 34 | 998.6 |
| 20260504170205 | 14 | 241 | 9.7 | 22.5 | 0.00 | 0.38 | 0.00 | 31 | 998.6 |
| 20260504160204 | 14 | 300 | 14.5 | 27.4 | 0.00 | 0.46 | 0.00 | 31 | 998.6 |
| 20260504150224 | 12 | 252 | 9.7 | 24.1 | 0.00 | 0.58 | 0.00 | 39 | 999.6 |
| 20260504141203 | 11 | 275 | 4.8 | 24.1 | 0.00 | 0.69 | 0.00 | 47 | 1000.2 |
| 20260504110226 | 1 | 236 | 0.0 | 12.9 | 0.00 | 1.07 | 0.00 | 83 | 1000.5 |
| 20260504100225 | 0 | 252 | 0.0 | 1.6 | 0.00 | 1.17 | 0.00 | 88 | 1000.5 |
| 20260504081203 | 1 | 315 | 4.8 | 19.3 | 0.00 | 1.30 | 0.00 | 85 | 999.4 |
| 20260504070204 | 1 | 281 | 6.4 | 11.3 | 0.00 | 1.30 | 0.00 | 86 | 998.5 |
| 20260504060203 | 2 | 342 | 3.2 | 11.3 | 0.00 | 1.30 | 0.00 | 83 | 998.3 |
| 20260504050203 | 3 | 316 | 6.4 | 19.3 | 0.00 | 1.30 | 0.00 | 84 | 998.3 |
| 20260504045203 | 3 | 312 | 6.4 | 19.3 | 0.00 | 1.30 | 0.00 | 83 | 998.3 |
| 20260504044203 | 3 | 276 | 4.8 | 20.9 | 0.00 | 1.30 | 0.00 | 84 | 998.2 |
| 20260504043224 | 3 | 312 | 6.4 | 22.5 | 0.00 | 1.30 | 0.00 | 85 | 998.2 |
| 20260504042203 | 3 | 316 | 6.4 | 17.7 | 0.00 | 1.30 | 0.00 | 86 | 998.2 |
| 20260504041203 | 3 | 315 | 6.4 | 20.9 | 0.00 | 1.30 | 0.00 | 88 | 998.2 |
| 20260504035204 | 4 | 319 | 6.4 | 11.3 | 0.00 | 1.32 | 1.30 | 93 | 998.0 |
| 20260504034204 | 4 | 328 | 4.8 | 11.3 | 0.00 | 1.32 | 1.30 | 94 | 997.8 |
| 20260504033203 | 4 | 354 | 1.6 | 17.7 | 0.00 | 1.32 | 1.30 | 95 | 997.8 |
| 20260504032204 | 4 | 350 | 6.4 | 9.7 | 0.00 | 1.32 | 1.30 | 95 | 998.0 |
| 20260504031203 | 4 | 9 | 9.7 | 25.7 | 0.00 | 1.35 | 1.30 | 95 | 998.0 |
| 20260504030204 | 4 | 334 | 3.2 | 19.3 | 0.00 | 1.35 | 1.30 | 95 | 998.0 |
| 20260504025203 | 4 | 320 | 4.8 | 16.1 | 0.00 | 1.35 | 1.30 | 94 | 998.0 |
| 20260504024204 | 4 | 330 | 6.4 | 14.5 | 0.00 | 1.35 | 1.30 | 94 | 997.9 |
| 20260504023203 | 4 | 320 | 1.6 | 9.7 | 0.00 | 1.35 | 1.30 | 93 | 997.9 |
| 20260504022203 | 4 | 355 | 3.2 | 9.7 | 0.00 | 1.35 | 1.30 | 93 | 997.7 |
| 20260504021225 | 4 | 347 | 8.0 | 22.5 | 0.00 | 1.35 | 1.30 | 93 | 997.7 |
| 20260504020203 | 4 | 337 | 9.7 | 19.3 | 0.00 | 1.35 | 1.30 | 93 | 997.7 |
| 20260504015203 | 4 | 346 | 9.7 | 27.4 | 0.00 | 1.35 | 1.30 | 94 | 997.7 |
| 20260504014203 | 4 | 346 | 11.3 | 22.5 | 0.00 | 1.35 | 1.30 | 95 | 998.0 |
| 20260504013203 | 4 | 329 | 11.3 | 19.3 | 0.00 | 1.35 | 1.30 | 95 | 998.0 |
| 20260504012202 | 4 | 357 | 11.3 | 27.4 | 0.00 | 1.35 | 1.30 | 96 | 997.9 |
| 20260504011203 | 4 | 354 | 9.7 | 19.3 | 0.00 | 1.35 | 1.30 | 95 | 997.8 |
| 20260504005205 | 4 | 2 | 12.9 | 17.7 | 0.00 | 1.35 | 1.30 | 95 | 997.7 |
| 20260504004204 | 4 | 350 | 9.7 | 19.3 | 0.00 | 1.35 | 1.30 | 95 | 997.7 |
| 20260504003204 | 4 | 12 | 4.8 | 16.1 | 0.00 | 1.35 | 1.30 | 95 | 997.7 |
| 20260504002204 | 4 | 352 | 6.4 | 27.4 | 0.00 | 1.35 | 1.30 | 95 | 997.7 |
| 20260504001225 | 4 | 5 | 3.2 | 19.3 | 0.00 | 1.35 | 1.30 | 95 | 997.7 |
| 20260504000204 | 4 | 359 | 4.8 | 19.3 | 0.00 | 1.35 | 1.30 | 95 | 997.7 |
| 20260503235225 | 4 | 324 | 6.4 | 20.9 | 0.03 | 1.35 | 1.30 | 95 | 997.5 |
| 20260503234225 | 4 | 348 | 6.4 | 22.5 | 0.00 | 1.35 | 1.27 | 95 | 997.5 |
| 20260503233204 | 4 | 359 | 6.4 | 24.1 | 0.00 | 1.35 | 1.27 | 95 | 997.5 |
| 20260503232204 | 5 | 337 | 9.7 | 22.5 | 0.00 | 1.35 | 1.27 | 95 | 997.5 |
| 20260503231225 | 5 | 339 | 4.8 | 16.1 | 0.00 | 1.35 | 1.27 | 95 | 997.6 |
| 20260503230203 | 5 | 359 | 4.8 | 14.5 | 0.00 | 1.35 | 1.27 | 95 | 997.6 |
| 20260503225225 | 5 | 4 | 9.7 | 20.9 | 0.03 | 1.35 | 1.27 | 95 | 997.7 |
| 20260503224203 | 5 | 342 | 9.7 | 25.7 | 0.03 | 1.35 | 1.27 | 94 | 997.7 |
| 20260503223204 | 5 | 356 | 12.9 | 24.1 | 0.00 | 1.32 | 1.24 | 94 | 997.6 |
| 20260503222204 | 5 | 1 | 9.7 | 17.7 | 0.00 | 1.32 | 1.24 | 94 | 997.6 |
| 20260503221224 | 5 | 352 | 12.9 | 20.9 | 0.00 | 1.35 | 1.24 | 94 | 997.6 |
| 20260503220203 | 5 | 349 | 12.9 | 20.9 | 0.00 | 1.35 | 1.24 | 95 | 997.6 |
| 20260503215203 | 5 | 359 | 11.3 | 19.3 | 0.03 | 1.35 | 1.24 | 95 | 997.7 |
| 20260503214224 | 5 | 339 | 8.0 | 20.9 | 0.03 | 1.35 | 1.24 | 95 | 997.9 |
| 20260503213203 | 5 | 14 | 9.7 | 17.7 | 0.03 | 1.37 | 1.24 | 95 | 998.2 |